Regional Weather Roundup
Issued by NWS

Home | Current Version | Previous Version | Graphics & Text | Print | Product List | Glossary Off
Versions: 1 2 3 4 5 6 7 8 9 10 11 12 13 14 15 16 17 18 19 20 21 22 23 24 25 26 27 28 29 30 31 32 33 34 35 36 37 38 39 40 41 42 43 44 45 46 47 48 49 50

000
ASUS43 KMPX 260510
RWRMN
WEATHER ROUNDUP FOR MINNESOTA
NATIONAL WEATHER SERVICE TWIN CITIES/CHANHASSEN MN
1200 AM CDT TUE MAY 26 2015


NOTE: "FAIR" INDICATES FEW OR NO CLOUDS BELOW 12,000 FEET WITH NO
SIGNIFICANT WEATHER AND/OR OBSTRUCTIONS TO VISIBILITY. N/A MEANS
CURRENT SKY AND/OR WEATHER CONDITIONS ARE NOT AVAILABLE.

MNZ060>063-068>070-260600-
   Twin Cities Metro

CITY           SKY/WX    TMP DP  RH WIND       PRES   REMARKS
TWIN CITIES    MOCLDY    64  58  80 SW6       29.78S
ST PAUL        PTCLDY    62  59  90 CALM      29.78S
CRYSTAL        PTCLDY    61  57  87 SW5       29.76S
BLAINE         PTCLDY    63  61  94 SW3       29.77S
LAKEVILLE      MOCLDY    59  57  94 CALM      29.79R
EDEN PRAIRIE   MOCLDY    61  57  87 SW6       29.77S
SOUTH ST PAUL  PTCLDY    61  58  90 CALM      29.78R
LAKE ELMO      FAIR      61  59  94 SW6       29.79R
$$
MNZ001>005-007-008-013>017-022>024-027-028-260600-
   Northwest Minnesota

CITY           SKY/WX    TMP DP  RH WIND       PRES   REMARKS
BEMIDJI        CLOUDY    51  51  99 CALM      29.84R
HALLOCK        CLEAR     63  50  63 S9        29.78S
ROSEAU         PTCLDY    57  52  82 S9        29.80S
WARROAD        PTCLDY    57  54  88 SW8       29.80S
THIEF RVR FALL CLEAR     54  50  87 S6        29.83S
CROOKSTON      CLEAR     55  52  88 SW7       29.85R
FOSSTON        PTCLDY    50  46  87 CALM      29.85R
DETROIT LAKES  PTCLDY    55  52  88 CALM      29.86R
MOORHEAD       CLEAR     54  52  94 CALM      29.88R
PARK RAPIDS    MOCLDY    55  51  86 N6        29.84R
MAHNOMEN       FAIR      52  50  93 SW3       29.86R
$$
MNZ006-009>011-018-025>026-260600-
   North Central Minnesota

CITY           SKY/WX    TMP DP  RH WIND       PRES   REMARKS
BAUDETTE       MOCLDY    55  51  86 S6        29.80S
FLAG ISLAND    PTCLDY    57  54  88 S9        29.77S
INTL FALLS     CLOUDY    51  50  96 NW3       29.82R
WASKISH        CLOUDY    52  52 100 CALM      29.82
BIG FORK       CLOUDY    54  52  94 CALM      29.83R
LONGVILLE      CLOUDY    54  52  94 E6        29.81R
GRAND RAPIDS   CLOUDY    54  48  82 N3        29.82R
CRANE LAKE     CLOUDY    52  50  93 CALM      29.83R FOG
ORR            CLOUDY    54  50  87 CALM      29.79S
COOK           CLOUDY    54  52  94 CALM      29.82R
WALKER         CLOUDY    53  52  94 CALM      29.84R
$$
MNZ012-019>021-037-260600-
   Northeast Minnesota

CITY           SKY/WX    TMP DP  RH WIND       PRES   REMARKS
DULUTH         DRIZZLE   52  50  93 NE6       29.79R
ELY            DRIZZLE   54  50  87 E5        29.81S
HIBBING        CLOUDY    54  50  86 E5        29.81R
EVELETH        CLOUDY    54  52  94 CALM      29.82R
DULUTH HARBOR  CLOUDY    46  45  93 CALM      29.81R
TWO HARBORS    CLOUDY    55  50  82 CALM      29.78R HAZE
GRAND MARAIS     N/A     42  42 100 W3        29.79R
G MARAIS ARPRT DRIZZLE   52  46  82 N8        29.80R
$$
MNZ029>031-032-039>041-046>048-054>057-064-260600-
   West Central Minnesota

CITY           SKY/WX    TMP DP  RH WIND       PRES   REMARKS
FERGUS FALLS   CLEAR     55  50  82 N3        29.85S
WHEATON        PTCLDY    52  48  87 NW5       29.86S
MORRIS         PTCLDY    55  52  88 NE6       29.82R
ALEXANDRIA     CLOUDY    56  51  84 NE8       29.82S
ELBOW LAKE     FAIR      56  50  81 NE7       29.81F
WADENA         PTCLDY    54  52  94 NE7       29.82R
GLENWOOD       CLOUDY    55  54  94 N9        29.82R
APPLETON       MOCLDY    57  52  82 N6        29.83R
BENSON         CLOUDY    57  52  82 NE5       29.82R
ORTONVILLE     CLEAR     54  48  82 N5        29.85R
MADISON        CLOUDY    57  54  88 NW3       29.83R
WILLMAR        MOCLDY    59  55  88 NW6       29.82R
$$
MNZ033>034-036-042>043-049>051-058-059-260600-
   Central Minnesota

CITY           SKY/WX    TMP DP  RH WIND       PRES   REMARKS
ST CLOUD       PTCLDY    54  53  97 NW6       29.76S
SAUK CENTRE    CLOUDY    56  53  90 N9        29.81R
PAYNESVILLE    CLOUDY    55  54  97 W6        29.80R
AITKIN         CLOUDY    55  48  76 N7        29.78S HAZE
PINE RIVER     PTCLDY    54  52  94 N5        29.86R
BRAINERD       CLOUDY    54  53  97 NE10      29.80R
STAPLES        PTCLDY    54  52  94 NE7       29.81S
LONG PRAIRIE   CLOUDY    54  52  94 N7        29.81R
LITTLE FALLS   DRIZZLE   54  52  94 N3        29.80R
LITCHFIELD     PTCLDY    59  57  94 W3        29.79R
BUFFALO        PTCLDY    58  54  86 CALM      29.79R
MAPLE LAKE     PTCLDY    58  56  93 CALM      29.79R
$$
MNZ037-044-045-052-053-260600-
   East Central Minnesota

CITY           SKY/WX    TMP DP  RH WIND       PRES   REMARKS
PRINCETON      PTCLDY    59  55  88 CALM      29.77R
MORA           MOCLDY    57  55  94 N3        29.78R
CAMBRIDGE      CLEAR     61  52  72 SW3       29.75R
RUSH CITY      MOCLDY    59  55  87 CALM      29.76S
MOOSE LAKE     CLOUDY    50  50 100 N7        29.77S
HINCKLEY       CLOUDY    54  54 100 N7        29.77R
CLOQUET        RAIN      52  48  87 CALM      29.79S
MCGREGOR       CLOUDY    54  52  94 NE7       29.80R
$$
MNZ071>073-080-081-089-090-097-098-260600-
   Southwest Minnesota

CITY           SKY/WX    TMP DP  RH WIND       PRES   REMARKS
MONTEVIDEO     CLOUDY    57  55  94 N3        29.83R
GRANITE FALLS  CLEAR     56  53  89 W7        29.83R
CANBY          CLOUDY    55  52  88 NW5       29.85R
MARSHALL       PTCLDY    57  50  77 NW5       29.82R
REDWOOD FALLS  PTCLDY    58  55  90 W8        29.81R
OLIVIA         CLEAR     54  50  87 W3        29.81R
PIPESTONE      PTCLDY    55  54  94 NE6       29.83R
WINDOM         MOCLDY    57  55  94 CALM      29.82S
WORTHINGTON    MOCLDY    59  54  82 N7        29.83R
JACKSON        CLOUDY    61  59  94 VRB5      29.82S
TRACY          PTCLDY    56  54  93 NW5       29.83S
SLAYTON        PTCLDY    55  55  97 CALM      29.84R
$$
MNZ065>067-074>077-082>085-091>093-260600-
   South Central Minnesota

CITY           SKY/WX    TMP DP  RH WIND       PRES   REMARKS
MANKATO        MOCLDY    63  57  82 CALM      29.80R
NEW ULM        MOCLDY    59  55  88 W3        29.81R
ST JAMES       CLOUDY    63  59  88 NW5       29.81S
FAIRMONT       CLOUDY    63  55  77 CALM      29.82R
GLENCOE        PTCLDY    60  58  91 CALM      29.79R
FARIBAULT      MOCLDY    61  59  94 CALM      29.80R FOG
OWATONNA       CLOUDY    59  57  94 CALM      29.80S
WASECA         CLOUDY    59  57  94 CALM      29.80S
ALBERT LEA     CLOUDY    66  61  82 CALM      29.80S
$$
MNZ078>079-086>088-094>096-260600-
   Southeast Minnesota

CITY           SKY/WX    TMP DP  RH WIND       PRES   REMARKS
ROCHESTER      MOCLDY    64  59  83 S10       29.81R
RED WING       PTCLDY    59  57  94 CALM      29.77S
STANTON        MOCLDY    60  58  92 S3        29.78R
DODGE CENTER   CLOUDY    63  59  88 S3        29.80S
WINONA         PTCLDY    70  61  73 SW5       29.79S
AUSTIN         CLOUDY    64  59  82 S5        29.80S
PRESTON        CLOUDY    66  62  86 S9        29.82R
$$
ABBREVIATIONS USED IN REMARKS
   TC - TEMPERATURES IN CELSIUS
  WCI - WIND CHILL INDEX
   HX - HEAT INDEX
  VSB - VISIBILITY
$$



USA.gov is the U.S. government's official web portal to all federal, state and local government web resources and services.